This demonstration page uses our WeatherBlox Daily Observations layout. Learn more.

Left ArrowRight Arrow

39.08367, -84.50855

Hourly Observations for April 14, 2020

Temp ( °F °C ) Dew Point ( °F °C ) Humidity (%) Winds ( mph kmh ) Pressure ( in mb ) Visibility ( mi km ) Precip ( " mm )
12:53 am 00:53 Mostly Clear 43 6.1 26 -3.3 51 51 NW 12 19 30.21 1023 10 16 0.00 0.00
1:53 am 01:53 Mostly Clear 42 5.6 24 -4.4 49 49 NNW 6 9 30.22 1023 10 16 0.00 0.00
2:53 am 02:53 Mostly Cloudy 41 5 22 -5.6 47 47 NNW 7 11 30.22 1024 10 16 0.00 0.00
3:53 am 03:53 Mostly Clear 40 4.4 22 -5.6 49 49 N 7 11 30.21 1023 10 16 0.00 0.00
4:53 am 04:53 Mostly Cloudy 39 3.9 22 -5.6 50 50 NW 7 11 30.21 1023 10 16 0.00 0.00
5:53 am 05:53 Clear 38 3.3 21 -6.1 51 51 NW 6 9 30.24 1024 10 16 0.00 0.00
6:53 am 06:53 Clear 37 2.8 22 -5.6 54 54 NW 5 7 30.24 1024 10 16 0.00 0.00
7:53 am 07:53 Sunny 38 3.3 22 -5.6 52 52 Calm 30.25 1025 10 16 0.00 0.00
8:53 am 08:53 Cloudy 39 3.9 23 -5 53 53 Calm 30.26 1025 10 16 0.00 0.00
9:53 am 09:53 Cloudy 42 5.6 20 -6.7 41 41 NNE 3 6 30.26 1025 10 16 0.00 0.00
10:53 am 10:53 Cloudy 44 6.7 20 -6.7 38 38 N 7 11 30.26 1025 10 16 0.00 0.00
11:53 am 11:53 Mostly Cloudy 44 6.7 19 -7.2 37 37 SW 5 7 30.25 1024 10 16 0.00 0.00
12:53 pm 12:53 Mostly Sunny 45 7.2 21 -6.1 39 39 W 5 7 30.23 1024 10 16 0.00 0.00
1:53 pm 13:53 Partly Cloudy 45 7.2 21 -6.1 39 39 W 8 13 30.20 1023 10 16 0.00 0.00
2:53 pm 14:53 Mostly Cloudy 46 7.8 21 -6.1 37 37 W 10 17 30.19 1023 10 16 0.00 0.00
3:53 pm 15:53 Partly Cloudy 47 8.3 23 -5 39 39 W 13 20 30.18 1022 10 16 0.00 0.00
6:53 pm 18:53 Mostly Sunny 47 8.3 17 -8.3 30 30 WNW 9 15 30.16 1021 10 16 0.00 0.00
7:53 pm 19:53 Sunny 45 7.2 12 -11.1 26 26 NW 7 11 30.17 1022 10 16 0.00 0.00
8:53 pm 20:53 Clear 42 5.6 13 -10.6 30 30 NNW 5 7 30.18 1022 10 16 0.00 0.00
9:53 pm 21:53 Clear 40 4.4 15 -9.4 36 36 Calm 30.19 1022 10 16 0.00 0.00
10:53 pm 22:53 Clear 34 1.1 24 -4.4 67 67 Calm 30.19 1022 10 16 0.00 0.00
11:53 pm 23:53 Clear 32 0 26 -3.3 79 79 Calm 30.19 1022 10 16 0.00 0.00

Powered by AerisWeather